Showing default

AAUSAT3, 39087

Orbit data source: Space-Track

AAUSAT3, 39087 is a payload satellite owned by AAU (DK) in SSO that was launched on Mon, 25 Feb 2013 UTC via a PSLV launch vehicle from the Sirharikota (SRI). Payload-class satellites include a variety of spacecraft equipped with specific instruments for various scientific and technological missions. These include communications satellites like Starlink; space stations such as the ISS; scientific satellites like the Hubble; Earth observation satellites from companies like Planet Labs, Umbra, and HawkEye 360; GPS; miniature CubeSats for education and research; and military/defense satellites.

Loading next visibility...
Identifier
39087, 2013-009B
Orbit
SSO
Country
Flag of DKDK / DEN
Related business
Manufacturer
AAU
Mission
Non-operational Amateur Communications
Bus & Motor
CUBESAT 1U, Unknown motor
Mass
3 kg wet, 3 kg dry
Launch date (UTC)
2013-02-25 (13 years ago)
Launch vehicle
PSLV
Launch site
Sirharikota (SRI)
Object type
Payload
Rocket body
Debris
Shape & HBR
Box, 0.1 m
Radar Cross Section
0.015 m², Small (<0.1 m²)

Expand to show TLE details & history
Last TLE update: 22 hours ago

TLE from 22 hours ago
0 AAUSAT3
1 39087U 13009B   26094.45188354  .00001172  00000-0  38666-3 0  9992
2 39087  98.3699 279.9266 0012550  75.7924 284.4658 14.39846603686563
Epoch: 2026-04-04T10:50Z
TLE epoch observation values (Epoch: 2026-04-04T10:50:42.737Z)
Latitude
-0.00002°
Longitude
-75.52293°
Altitude
759.73 km
Speed
7.476 km/s
True Right ascension
18h 39m 42s
True Declination
0° 00' 00"
Sunlit
Object was in daylight at epoch
Visualization orbit readout
Latitude
Unknown
Longitude
Unknown
Altitude
Unknown
Speed
Unknown
Apparent Right ascension
Unknown
Apparent Declination
Unknown
Sunlit
N/A
Visualization observer readout
Local Sidereal Time
15:01:48
Azimuth
Unknown
Elevation
Unknown
Doppler factor
Unknown
Orbital elements
Apogee altitude
765.075 km
Perigee altitude
747.168 km
Semi-major axis
7,134.258 km
Eccentricity
0.00126
Inclination
98.3699°
RAAN
279.9266°
Arg. of periapsis
75.7924°
True anomaly
284.32649°
Mean anomaly
284.4658°
Eccentric anomaly
284.39615°
Mean motion
3.6018 °/min
Orbital period
99.95 mins
BSTAR
0.00038666
Loading maneuver chart data...
Computing Atmospheric mass density...
Loading historical data...
Loading historical data...
Loading historical data...
Loading historical data...
Loading historical data...
Loading historical data...
Loading historical data...

Documentation

Showing up to 5 results
|